Regional Weather Roundup
Issued by NWS

Home | Current Version | Previous Version | Graphics & Text | Print | Product List | Glossary On
Versions: 1 2 3 4 5 6 7 8 9 10 11 12 13 14 15 16 17 18 19 20 21 22 23 24 25 26 27 28 29 30 31 32 33 34 35 36 37 38 39 40 41 42 43 44 45 46 47 48 49 50
000
ASUS45 KABQ 231601
RWRNM
NEW MEXICO REGIONAL WEATHER ROUNDUP
NATIONAL WEATHER SERVICE ALBUQUERQUE NM
900 AM MST THU NOV 23 2017

NOTE: "FAIR" MEANS FEW OR NO CLOUDS BELOW 12,000 FEET AGL WITH NO
       SIGNIFICANT WEATHER OR OBSTRUCTIONS TO VISION.

      THIS PRODUCT IS RELEASED AS TWO VERSIONS.  ONE VERSION NEAR
      THE TOP OF THE HOUR CONTAINING PRELIMINARY DATA FROM ALBUQUERQUE
      AND OTHER STATIONS.  A FINAL VERSION WITH ADDITIONAL DATA IS
      ISSUED ABOUT 10 MINUTES AFTER THE HOUR.

NMZ501-503-504-510>518-231700-
NORTHWEST PLATEAU/NORTHCENTRAL MOUNTAINS

CITY           SKY/WX    TMP DP  RH WIND       PRES   REMARKS
FARMINGTON     FAIR      35  24  64 E8        30.38S WCI  29
LOS ALAMOS     FAIR      51  30  44 N9        30.40F
SANTA FE       FAIR      46  30  53 N12       30.37S
TAOS           FAIR      44  29  55 NW3       30.42F
ANGEL FIRE     FAIR      34  30  86 CALM      30.44F

$$
NMZ402-403-502-505>509-231700-
WESTCENTRAL MOUNTAINS/SOUTHWEST MOUNTAINS

CITY           SKY/WX    TMP DP  RH WIND       PRES   REMARKS
GALLUP         FAIR      36  25  64 CALM      30.42R
GRANTS         FAIR      39  28  63 NW5       30.43S
SILVER CITY    FAIR      59  27  29 CALM      30.33S

$$
NMZ407-409-411-412-231700-
SOUTHERN DESERTS

CITY           SKY/WX    TMP DP  RH WIND       PRES   REMARKS
DEMING         FAIR      53  23  31 CALM      30.31R
LAS CRUCES     FAIR      56  24  29 CALM      30.31S
ALAMOGORDO     FAIR      50  25  37 S3        30.30S
T OR C         FAIR      55  28  35 NE3       30.32S

$$
NMZ519>523-231700-
CENTRAL VALLEYS/CENTRAL HIGHLANDS

CITY           SKY/WX    TMP DP  RH WIND       PRES   REMARKS
ALBUQUERQUE    PTSUNNY   48  30  49 N8        30.37S
DOUBLE EAGLE   MOSUNNY   48  30  49 VRB5      30.38S
MORIARTY ARPT  FAIR      50  32  50 N5        30.38S
CLINES CORNERS FAIR      56  29  35 NE6       30.38R
BELEN          FAIR      46  28  50 CALM      30.37S
SOCORRO        FAIR      46  27  46 N7        30.35S

$$
NMZ524>526-539-540-231700-
SOUTHCENTRAL MOUNTAINS

CITY           SKY/WX    TMP DP  RH WIND       PRES   REMARKS
RUIDOSO        FAIR      55  27  33 NW7       30.38R

$$
NMZ527>531-231700-
NORTHEAST HIGHLANDS/NORTHEAST PLAINS

CITY           SKY/WX    TMP DP  RH WIND       PRES   REMARKS
LAS VEGAS      FAIR      47  30  51 NE6       30.35F
RATON          FAIR      42  30  62 N5        30.32F
CLAYTON        FAIR      61  37  41 NW3       30.25F

$$
NMZ532>537-231700-
EASTCENTRAL PLAINS

CITY           SKY/WX    TMP DP  RH WIND       PRES   REMARKS
SANTA ROSA     FAIR      50  32  49 CALM      30.28S
TUCUMCARI      FAIR      51  31  46 W6        30.24S
CANNON AFB     FAIR      57  32  39 NW7       30.26S
CLOVIS AIRPORT FAIR      56  32  40 NW7       30.25S

$$
NMZ028-029-538-231700-
SOUTHEAST PLAINS

CITY           SKY/WX    TMP DP  RH WIND       PRES   REMARKS
ROSWELL        FAIR      49  29  46 N5        30.26S
ARTESIA        FAIR      48  28  46 N8        30.27S
CARLSBAD       FAIR      55  30  38 NW10      30.25S
HOBBS          SUNNY     63  28  27 N8        30.23S


$$




USA.gov is the U.S. government's official web portal to all federal, state and local government web resources and services.